Claremore, OK

7:11 AM CDT on April 21, 2018 (GMT -0500)
Claremore Regional

Weather History for KGCM - January, 2013

Change the Weather History Date:

Wednesday, January 30, 2013

  Actual Average (KTUL) Record (KTUL)
Temperature  
Mean Temperature 32 °F -  
Max Temperature 41 °F 49 °F 74 °F (1931)
Min Temperature 23 °F 27 °F -6 °F (1949)
Degree Days  
Heating Degree Days 32    
Moisture  
Dew Point 27 °F    
Average Humidity 77    
Maximum Humidity 100    
Minimum Humidity 60    
Precipitation  
Precipitation 0.00 in - - ()
Sea Level Pressure  
Sea Level Pressure 29.89 in    
Wind  
Wind Speed 12 mph (NW)    
Max Wind Speed 21 mph    
Max Gust Speed 31 mph    
Visibility 10 miles    
Events      
Averages and records for this station are not official NWS values.
T = Trace of Precipitation, MM = Missing Value Source: NWS Daily Summary

Daily Weather History Graph

Daily Weather History Graph

Search for Another Location

Airport or City:

Astronomy

Jan. 30, 2013 Rise Set
Actual Time 7:24 AM CST 5:46 PM CST
Civil Twilight 6:57 AM CST 6:13 PM CST
Nautical Twilight 6:26 AM CST 6:44 PM CST
Astronomical Twilight 5:56 AM CST 7:14 PM CST
Moon 9:37 PM CST (1/30) 9:00 AM CST (1/30)
Length of Visible Light 11h 16m
Length of Day
10h 22m
Waning Gibbous, 87% of the Moon is Illuminated
Jan 30
Waning Gibbous
Feb 3
Last Quarter
Feb 10
New
Feb 17
First Quarter
Feb 25
Full

Hourly Weather History & Observations

Time (CST) Temp. Windchill Dew Point Humidity Pressure Visibility Wind Dir Wind Speed Gust Speed Precip Events Conditions
12:15 AM 41.0 °F 33.9 °F 41.0 °F 100% 29.62 in 7.0 mi WNW 12.7 mph - N/A   Overcast
12:35 AM 41.0 °F 33.1 °F 39.2 °F 93% 29.63 in 7.0 mi WNW 15.0 mph - N/A   Overcast
1:15 AM 39.2 °F 32.5 °F 35.6 °F 87% 29.64 in 7.0 mi NW 10.4 mph 16.1 mph N/A   Overcast
1:35 AM 39.2 °F 32.0 °F 35.6 °F 87% 29.63 in 10.0 mi NW 11.5 mph 17.3 mph N/A   Overcast
1:55 AM 39.2 °F 32.0 °F 35.6 °F 87% 29.64 in 10.0 mi WNW 11.5 mph - N/A   Overcast
2:15 AM 39.2 °F 31.2 °F 35.6 °F 87% 29.64 in 10.0 mi WNW 13.8 mph 19.6 mph N/A   Overcast
2:35 AM 37.4 °F 30.8 °F 33.8 °F 87% 29.63 in 10.0 mi NW 9.2 mph 17.3 mph N/A   Light Drizzle
2:55 AM 37.4 °F 29.8 °F 33.8 °F 87% 29.66 in 10.0 mi WNW 11.5 mph 17.3 mph N/A   Overcast
3:15 AM 39.2 °F 33.0 °F 33.8 °F 81% 29.66 in 10.0 mi West 9.2 mph - N/A   Overcast
3:35 AM 39.2 °F 32.5 °F 33.8 °F 81% 29.66 in 10.0 mi WNW 10.4 mph - N/A   Overcast
3:55 AM 37.4 °F 29.3 °F 33.8 °F 87% 29.66 in 10.0 mi WNW 12.7 mph - N/A   Overcast
4:15 AM 37.4 °F 28.9 °F 33.8 °F 87% 29.66 in 10.0 mi WNW 13.8 mph 21.9 mph N/A   Mostly Cloudy
4:35 AM 35.6 °F 25.9 °F 32.0 °F 87% 29.66 in 10.0 mi WNW 16.1 mph 24.2 mph N/A   Scattered Clouds
4:55 AM 35.6 °F 27.5 °F 32.0 °F 87% 29.67 in 10.0 mi NW 11.5 mph 19.6 mph N/A   Mostly Cloudy
5:15 AM 35.6 °F 28.0 °F 32.0 °F 87% 29.68 in 10.0 mi NW 10.4 mph 20.7 mph N/A   Overcast
5:35 AM 35.6 °F 28.0 °F 32.0 °F 87% 29.70 in 10.0 mi NW 10.4 mph - N/A   Overcast
5:55 AM 35.6 °F 27.1 °F 32.0 °F 87% 29.71 in 10.0 mi WNW 12.7 mph - N/A   Overcast
6:15 AM 35.6 °F 27.5 °F 32.0 °F 87% 29.73 in 10.0 mi NW 11.5 mph 20.7 mph N/A   Overcast
6:35 AM 35.6 °F 28.0 °F 32.0 °F 87% 29.75 in 10.0 mi NW 10.4 mph 21.9 mph N/A   Overcast
6:55 AM 35.6 °F 26.6 °F 32.0 °F 87% 29.76 in 10.0 mi NW 13.8 mph 18.4 mph N/A   Overcast
7:15 AM 35.6 °F 25.9 °F 30.2 °F 81% 29.77 in 10.0 mi NW 16.1 mph 21.9 mph N/A   Overcast
7:35 AM 35.6 °F 25.2 °F 30.2 °F 81% 29.79 in 10.0 mi NW 18.4 mph 24.2 mph N/A   Overcast
7:55 AM 35.6 °F 26.2 °F 30.2 °F 81% 29.80 in 10.0 mi NW 15.0 mph 23.0 mph N/A   Overcast
8:15 AM 35.6 °F 25.9 °F 30.2 °F 81% 29.81 in 10.0 mi NW 16.1 mph 24.2 mph N/A   Overcast
8:35 AM 35.6 °F 26.6 °F 30.2 °F 81% 29.83 in 10.0 mi NNW 13.8 mph 19.6 mph N/A   Overcast
8:55 AM 35.6 °F 26.6 °F 28.4 °F 75% 29.85 in 10.0 mi NNW 13.8 mph 27.6 mph N/A   Mostly Cloudy
9:15 AM 35.6 °F 25.2 °F 28.4 °F 75% 29.86 in 10.0 mi NW 18.4 mph 26.5 mph N/A   Overcast
9:35 AM 33.8 °F 24.3 °F 26.6 °F 75% 29.87 in 10.0 mi NNW 13.8 mph 25.3 mph N/A   Overcast
9:55 AM 33.8 °F 23.5 °F 28.4 °F 81% 29.88 in 10.0 mi NNW 16.1 mph 23.0 mph N/A   Mostly Cloudy
10:15 AM 33.8 °F 24.8 °F 28.4 °F 81% 29.90 in 10.0 mi NNW 12.7 mph 24.2 mph N/A   Overcast
10:35 AM 33.8 °F 22.2 °F 26.6 °F 75% 29.91 in 10.0 mi NNW 20.7 mph 31.1 mph N/A   Mostly Cloudy
10:55 AM 33.8 °F 24.3 °F 26.6 °F 75% 29.93 in 10.0 mi NW 13.8 mph 21.9 mph N/A   Mostly Cloudy
11:15 AM 33.8 °F 23.9 °F 26.6 °F 75% 29.93 in 10.0 mi NW 15.0 mph 25.3 mph N/A   Mostly Cloudy
11:35 AM 35.6 °F 25.5 °F 26.6 °F 70% 29.94 in 10.0 mi NW 17.3 mph 29.9 mph N/A   Mostly Cloudy
11:55 AM 33.8 °F 23.2 °F 24.8 °F 70% 29.95 in 10.0 mi NW 17.3 mph 29.9 mph N/A   Mostly Cloudy
12:15 PM 33.8 °F 22.5 °F 24.8 °F 70% 29.96 in 10.0 mi NW 19.6 mph 27.6 mph N/A   Overcast
12:35 PM 33.8 °F 23.5 °F 24.8 °F 70% 29.96 in 10.0 mi NW 16.1 mph 25.3 mph N/A   Mostly Cloudy
12:55 PM 33.8 °F 24.3 °F 24.8 °F 70% 29.96 in 10.0 mi NW 13.8 mph 18.4 mph N/A   Mostly Cloudy
1:15 PM 32.0 °F 22.5 °F 24.8 °F 75% 29.96 in 10.0 mi NW 12.7 mph 19.6 mph N/A   Mostly Cloudy
1:35 PM 32.0 °F 20.8 °F 24.8 °F 75% 29.96 in 10.0 mi NW 17.3 mph 25.3 mph N/A   Mostly Cloudy
1:55 PM 32.0 °F 21.6 °F 23.0 °F 69% 29.97 in 10.0 mi NW 15.0 mph 29.9 mph N/A   Mostly Cloudy
2:15 PM 33.8 °F 23.9 °F 24.8 °F 70% 29.98 in 10.0 mi WNW 15.0 mph 27.6 mph N/A   Overcast
2:35 PM 35.6 °F 25.2 °F 24.8 °F 65% 29.98 in 10.0 mi NW 18.4 mph 24.2 mph N/A   Mostly Cloudy
2:55 PM 33.8 °F 23.9 °F 23.0 °F 65% 29.99 in 10.0 mi NW 15.0 mph 27.6 mph N/A   Mostly Cloudy
3:15 PM 35.6 °F 26.2 °F 24.8 °F 65% 29.99 in 10.0 mi NW 15.0 mph 23.0 mph N/A   Overcast
3:35 PM 35.6 °F 26.6 °F 23.0 °F 60% 30.00 in 10.0 mi NW 13.8 mph 23.0 mph N/A   Overcast
3:55 PM 35.6 °F 24.5 °F 23.0 °F 60% 30.00 in 10.0 mi WNW 20.7 mph 24.2 mph N/A   Mostly Cloudy
4:15 PM 35.6 °F 27.1 °F 24.8 °F 65% 30.01 in 10.0 mi NW 12.7 mph 18.4 mph N/A   Mostly Cloudy
4:35 PM 35.6 °F 27.5 °F 23.0 °F 60% 30.01 in 10.0 mi NW 11.5 mph - N/A   Mostly Cloudy
4:55 PM 35.6 °F 26.2 °F 23.0 °F 60% 30.02 in 10.0 mi NW 15.0 mph 23.0 mph N/A   Mostly Cloudy
5:15 PM 35.6 °F 27.5 °F 23.0 °F 60% 30.02 in 10.0 mi NW 11.5 mph - N/A   Overcast
5:35 PM 35.6 °F 28.0 °F 23.0 °F 60% 30.03 in 10.0 mi WNW 10.4 mph - N/A   Mostly Cloudy
5:55 PM 33.8 °F 26.4 °F 23.0 °F 65% 30.03 in 10.0 mi WNW 9.2 mph - N/A   Scattered Clouds
6:15 PM 32.0 °F 25.6 °F 23.0 °F 69% 30.04 in 10.0 mi West 6.9 mph - N/A   Clear
6:35 PM 32.0 °F 26.4 °F 23.0 °F 69% 30.04 in 10.0 mi WNW 5.8 mph - N/A   Clear
6:55 PM 32.0 °F 28.7 °F 23.0 °F 69% 30.05 in 10.0 mi WNW 3.5 mph - N/A   Clear
7:15 PM 32.0 °F 27.5 °F 23.0 °F 69% 30.06 in 10.0 mi WNW 4.6 mph - N/A   Clear
7:35 PM 32.0 °F 27.5 °F 23.0 °F 69% 30.06 in 10.0 mi NW 4.6 mph - N/A   Clear
7:55 PM 32.0 °F 28.7 °F 23.0 °F 69% 30.06 in 10.0 mi NNW 3.5 mph - N/A   Clear
8:15 PM 30.2 °F - 21.2 °F 69% 30.07 in 10.0 mi Calm Calm - N/A   Clear
8:35 PM 30.2 °F - 23.0 °F 75% 30.08 in 10.0 mi Calm Calm - N/A   Clear
8:55 PM 32.0 °F - 23.0 °F 69% 30.09 in 10.0 mi Calm Calm - N/A   Clear
9:15 PM 28.4 °F - 21.2 °F 74% 30.09 in 10.0 mi Calm Calm - N/A   Clear
9:35 PM 28.4 °F - 21.2 °F 74% 30.10 in 10.0 mi Calm Calm - N/A   Clear
9:55 PM 26.6 °F - 21.2 °F 80% 30.09 in 10.0 mi Calm Calm - N/A   Clear
10:15 PM 24.8 °F - 21.2 °F 86% 30.10 in 10.0 mi Calm Calm - N/A   Clear
10:35 PM 24.8 °F - 23.0 °F 93% 30.10 in 10.0 mi Calm Calm - N/A   Clear
11:15 PM 26.6 °F 22.6 °F 21.2 °F 80% 30.08 in 10.0 mi SE 3.5 mph - N/A   Clear
11:35 PM 24.8 °F 19.1 °F 21.2 °F 86% 30.10 in 10.0 mi South 4.6 mph - N/A   Clear
11:55 PM 23.0 °F 15.8 °F 21.2 °F 93% 30.10 in 10.0 mi South 5.8 mph - N/A   Clear